sat.trackr.live / text

‹ back to catalog

STARLINK-35549

NORAD 66139 · 2025-237AB

PAYLOAD ACTIVE UNKNOWN

§ Identity

Operator
Country
US
Launch date
2025-10-22
Launch site
AFWTR
Launch vehicle
Mass (kg)
RCS (m²)

Purposes: comms

External: N2YO · Heavens-Above · Gunter

§ Orbital elements

Epoch: 2026-09-20T03:48:06.887520Z

Period
93.85 min
Inclination
53.1556°
Eccentricity
0.0001384
Mean motion
15.34392399 rev/d
Perigee alt
461.8 km
Apogee alt
463.7 km
Semi-major
6,840.9 km
B*
1.6999e-4
RAAN
213.5620°
Arg perigee
88.9863°
Mean anomaly
271.1299°
Rev number
5,242

§ Raw data

STARLINK-355491 66139U 25237AB  26263.15841305  .00005370  00000+0  16999-3 0  99912 66139  53.1556 213.5620 0001384  88.9863 271.1299 15.34392399 52421

JSON: /api/v1/satellites/66139 · /tle

For live sub-satellite position, see the globe view (requires WebGL).

§ Visibility from observer

Set your observer location to see the next 7 days of passes ≥ 10°. The values pass through the URL so the page stays shareable.

No JS? Fill the form by hand. The geolocation button needs JavaScript.